Location: Newark
(44.0160°N, 116.9215°W)
Time: 23:25:13
(UTC+00:00)

Envisat - Pass Details

Date: 22 November 2019
Orbit: 764 x 766 km, 98.1° (Epoch: 09 December)

Event Time Altitude Azimuth Distance (km) Brightness Sun altitude
Rises 02:01:23 0° 175° (S) 3,218 6.3 -18.6°
Reaches altitude 10° 02:03:43 10° 179° (S) 2,296 5.6 -19.1°
Maximum altitude 02:08:43 60° 259° (W) 873 3.5 -19.9°
Drops below altitude 10° 02:13:45 10° 340° (NNW) 2,312 5.6 -20.8°
Sets 02:16:06 0° 344° (NNW) 3,242 6.4 -21.3°
